| time (UTC) | temp C | wind direction | speed KPH | gust KPH | rain 1hr cm | rain 24hr cm | rain mn cm | humidity % | barometer mb |
| 20260503003306 | 16 | 279 | 9.7 | 20.9 | 0.00 | 0.00 | 0.00 | 81 | 1009.7 |
| 20260503002252 | 16 | 246 | 11.3 | 20.9 | 0.00 | 0.00 | 0.00 | 80 | 1009.7 |
| 20260503001745 | 17 | 240 | 14.5 | 22.5 | 0.00 | 0.00 | 0.00 | 80 | 1010.1 |
| 20260503001237 | 16 | 224 | 11.3 | 22.5 | 0.00 | 0.00 | 0.00 | 80 | 1009.7 |
| 20260503000730 | 17 | 221 | 9.7 | 17.7 | 0.00 | 0.00 | 0.00 | 78 | 1009.7 |
| 20260503000222 | 17 | 237 | 8.0 | 17.7 | 0.00 | 0.00 | 0.00 | 79 | 1009.7 |
| 20260502234701 | 17 | 233 | 12.9 | 22.5 | 0.00 | 0.00 | 0.00 | 78 | 1009.7 |
| 20260502234154 | 17 | 224 | 14.5 | 22.5 | 0.00 | 0.00 | 0.00 | 79 | 1009.7 |
| 20260502233646 | 17 | 231 | 9.7 | 17.7 | 0.00 | 0.00 | 0.00 | 79 | 1010.1 |
| 20260502233139 | 17 | 237 | 11.3 | 22.5 | 0.00 | 0.00 | 0.00 | 79 | 1010.1 |
| 20260502232124 | 17 | 210 | 14.5 | 20.9 | 0.00 | 0.00 | 0.00 | 78 | 1010.1 |
| 20260502231617 | 17 | 229 | 8.0 | 22.5 | 0.00 | 0.00 | 0.00 | 78 | 1009.7 |
| 20260502231110 | 17 | 244 | 12.9 | 22.5 | 0.00 | 0.00 | 0.00 | 79 | 1009.7 |
| 20260502230602 | 17 | 246 | 6.4 | 24.1 | 0.00 | 0.00 | 0.00 | 80 | 1010.1 |
| 20260502230055 | 16 | 262 | 8.0 | 29.0 | 0.00 | 0.00 | 0.00 | 83 | 1010.1 |
| 20260502225548 | 16 | 214 | 22.5 | 29.0 | 0.00 | 0.00 | 0.00 | 81 | 1010.4 |
| 20260502225041 | 16 | 221 | 17.7 | 22.5 | 0.00 | 0.00 | 0.00 | 81 | 1010.4 |
| 20260502224026 | 16 | 232 | 17.7 | 25.7 | 0.00 | 0.00 | 0.00 | 81 | 1010.7 |
| 20260502223519 | 16 | 258 | 8.0 | 25.7 | 0.00 | 0.00 | 0.00 | 82 | 1010.7 |
| 20260502222504 | 16 | 249 | 12.9 | 24.1 | 0.00 | 0.00 | 0.00 | 82 | 1011.1 |
| 20260502221956 | 16 | 225 | 16.1 | 22.5 | 0.00 | 0.00 | 0.00 | 81 | 1011.4 |
| 20260502221449 | 16 | 227 | 9.7 | 22.5 | 0.00 | 0.00 | 0.00 | 81 | 1011.1 |
| 20260502220942 | 16 | 278 | 16.1 | 22.5 | 0.00 | 0.00 | 0.00 | 81 | 1011.4 |
| 20260502220435 | 16 | 247 | 17.7 | 22.5 | 0.00 | 0.00 | 0.00 | 81 | 1011.4 |
| 20260502215421 | 16 | 229 | 20.9 | 24.1 | 0.00 | 0.00 | 0.00 | 80 | 1011.8 |
| 20260502214913 | 17 | 218 | 9.7 | 22.5 | 0.00 | 0.00 | 0.00 | 81 | 1011.8 |
| 20260502214406 | 16 | 222 | 11.3 | 24.1 | 0.00 | 0.00 | 0.00 | 81 | 1011.8 |
| 20260502213858 | 16 | 214 | 16.1 | 24.1 | 0.00 | 0.00 | 0.00 | 81 | 1011.8 |
| 20260502213351 | 17 | 227 | 17.7 | 24.1 | 0.00 | 0.00 | 0.00 | 80 | 1012.1 |
| 20260502212843 | 16 | 218 | 17.7 | 22.5 | 0.00 | 0.00 | 0.00 | 81 | 1012.1 |
| 20260502212336 | 17 | 255 | 9.7 | 25.7 | 0.00 | 0.00 | 0.00 | 80 | 1012.1 |
| 20260502211829 | 17 | 225 | 11.3 | 25.7 | 0.00 | 0.00 | 0.00 | 80 | 1012.1 |
| 20260502211322 | 16 | 274 | 11.3 | 22.5 | 0.00 | 0.00 | 0.00 | 80 | 1012.1 |
| 20260502210815 | 17 | 237 | 9.7 | 22.5 | 0.00 | 0.00 | 0.00 | 80 | 1012.1 |
| 20260502205800 | 17 | 274 | 11.3 | 24.1 | 0.00 | 0.00 | 0.00 | 79 | 1012.4 |
| 20260502205253 | 17 | 263 | 14.5 | 22.5 | 0.00 | 0.00 | 0.00 | 77 | 1012.4 |
| 20260502204746 | 17 | 218 | 11.3 | 25.7 | 0.00 | 0.00 | 0.00 | 76 | 1012.4 |
| 20260502204239 | 18 | 239 | 16.1 | 25.7 | 0.00 | 0.00 | 0.00 | 76 | 1012.4 |
| 20260502203224 | 18 | 241 | 14.5 | 17.7 | 0.00 | 0.00 | 0.00 | 76 | 1012.4 |
| 20260502202209 | 18 | 226 | 14.5 | 16.1 | 0.00 | 0.00 | 0.00 | 74 | 1012.4 |
| 20260502201702 | 18 | 243 | 9.7 | 16.1 | 0.00 | 0.00 | 0.00 | 75 | 1012.4 |
| 20260502201155 | 18 | 227 | 8.0 | 16.1 | 0.00 | 0.00 | 0.00 | 76 | 1012.4 |
| 20260502200648 | 18 | 304 | 8.0 | 16.1 | 0.00 | 0.00 | 0.00 | 76 | 1012.4 |
| 20260502200141 | 17 | 289 | 1.6 | 16.1 | 0.00 | 0.00 | 0.00 | 78 | 1012.4 |
| 20260502195633 | 17 | 235 | 11.3 | 16.1 | 0.00 | 0.00 | 0.00 | 79 | 1012.4 |
| 20260502195126 | 17 | 247 | 14.5 | 20.9 | 0.00 | 0.00 | 0.00 | 77 | 1012.4 |
| 20260502194618 | 17 | 237 | 14.5 | 20.9 | 0.00 | 0.00 | 0.00 | 77 | 1012.8 |
| 20260502194111 | 17 | 237 | 9.7 | 14.5 | 0.00 | 0.00 | 0.00 | 79 | 1012.8 |
| 20260502193604 | 17 | 212 | 11.3 | 16.1 | 0.00 | 0.00 | 0.00 | 79 | 1012.8 |
| 20260502193057 | 17 | 263 | 11.3 | 16.1 | 0.00 | 0.00 | 0.00 | 79 | 1013.1 |
| 20260502192550 | 17 | 282 | 11.3 | 16.1 | 0.00 | 0.00 | 0.00 | 79 | 1012.8 |
| 20260502192041 | 17 | 252 | 6.4 | 16.1 | 0.00 | 0.00 | 0.00 | 79 | 1013.1 |
| 20260502191534 | 17 | 242 | 9.7 | 14.5 | 0.00 | 0.00 | 0.00 | 79 | 1013.1 |
| 20260502191027 | 17 | 279 | 9.7 | 14.5 | 0.00 | 0.00 | 0.00 | 79 | 1013.1 |
| 20260502190520 | 17 | 245 | 8.0 | 20.9 | 0.00 | 0.00 | 0.00 | 79 | 1013.1 |
| 20260502190012 | 17 | 260 | 6.4 | 20.9 | 0.00 | 0.00 | 0.00 | 80 | 1013.4 |
| 20260502185505 | 17 | 254 | 12.9 | 17.7 | 0.00 | 0.00 | 0.00 | 79 | 1013.4 |
| 20260502184451 | 18 | 247 | 8.0 | 14.5 | 0.00 | 0.00 | 0.00 | 77 | 1013.8 |
| 20260502183437 | 17 | 232 | 1.6 | 6.4 | 0.00 | 0.00 | 0.00 | 77 | 1013.4 |
| 20260502182928 | 17 | 126 | 1.6 | 4.8 | 0.00 | 0.00 | 0.00 | 78 | 1013.8 |
| 20260502181914 | 17 | 164 | 4.8 | 9.7 | 0.00 | 0.00 | 0.00 | 79 | 1013.4 |
| 20260502181406 | 17 | 152 | 4.8 | 9.7 | 0.00 | 0.00 | 0.00 | 80 | 1013.4 |
| 20260502180859 | 17 | 96 | 6.4 | 9.7 | 0.00 | 0.00 | 0.00 | 80 | 1013.4 |
| 20260502170224 | 16 | 6 | 3.2 | 4.8 | 0.00 | 0.00 | 0.00 | 85 | 1014.1 |
| 20260502164156 | 15 | 273 | 0.0 | 3.2 | 0.00 | 0.00 | 0.00 | 87 | 1014.1 |
| 20260502163649 | 15 | 295 | 0.0 | 6.4 | 0.00 | 0.00 | 0.00 | 88 | 1014.1 |
| 20260502163141 | 15 | 270 | 1.6 | 6.4 | 0.00 | 0.00 | 0.00 | 88 | 1014.1 |
| 20260502162127 | 15 | 169 | 3.2 | 6.4 | 0.00 | 0.00 | 0.00 | 88 | 1014.1 |
| 20260502161112 | 15 | 193 | 6.4 | 9.7 | 0.00 | 0.00 | 0.00 | 89 | 1014.1 |
| 20260502160604 | 15 | 310 | 1.6 | 11.3 | 0.00 | 0.00 | 0.00 | 89 | 1014.1 |
| 20260502152000 | 14 | 341 | 0.0 | 9.7 | 0.00 | 0.00 | 0.00 | 90 | 1013.8 |
| 20260502151452 | 14 | 144 | 0.0 | 9.7 | 0.00 | 0.00 | 0.00 | 91 | 1013.8 |
| 20260502150945 | 14 | 35 | 6.4 | 11.3 | 0.00 | 0.00 | 0.00 | 91 | 1013.4 |
| 20260502150438 | 14 | 104 | 4.8 | 11.3 | 0.00 | 0.00 | 0.00 | 91 | 1013.4 |
| 20260502130650 | 13 | 190 | 0.0 | 3.2 | 0.00 | 0.00 | 0.00 | 93 | 1012.8 |
| 20260502130143 | 13 | 188 | 1.6 | 3.2 | 0.00 | 0.00 | 0.00 | 93 | 1012.8 |
| 20260502123606 | 13 | 241 | 1.6 | 4.8 | 0.00 | 0.00 | 0.00 | 93 | 1012.8 |
| 20260502123059 | 13 | 270 | 0.0 | 6.4 | 0.00 | 0.00 | 0.00 | 93 | 1012.8 |
| 20260502122552 | 13 | 202 | 3.2 | 6.4 | 0.00 | 0.00 | 0.00 | 93 | 1012.8 |
| 20260502122044 | 13 | 211 | 4.8 | 6.4 | 0.00 | 0.00 | 0.00 | 93 | 1012.8 |
| 20260502121537 | 13 | 236 | 4.8 | 9.7 | 0.00 | 0.00 | 0.00 | 93 | 1012.4 |
| 20260502121030 | 13 | 221 | 6.4 | 9.7 | 0.00 | 0.00 | 0.00 | 93 | 1012.4 |
| 20260502120523 | 13 | 278 | 1.6 | 11.3 | 0.00 | 0.00 | 0.00 | 93 | 1012.4 |
| 20260502115509 | 13 | 231 | 8.0 | 9.7 | 0.00 | 0.00 | 0.00 | 93 | 1012.8 |
| 20260502115001 | 13 | 245 | 3.2 | 9.7 | 0.00 | 0.00 | 0.00 | 92 | 1012.4 |
| 20260502114454 | 14 | 232 | 6.4 | 9.7 | 0.00 | 0.00 | 0.00 | 93 | 1012.4 |
| 20260502113947 | 14 | 184 | 3.2 | 9.7 | 0.00 | 0.00 | 0.00 | 92 | 1012.8 |
| 20260502113439 | 14 | 213 | 8.0 | 9.7 | 0.00 | 0.00 | 0.00 | 92 | 1012.4 |
| 20260502112932 | 14 | 225 | 3.2 | 4.8 | 0.00 | 0.00 | 0.00 | 92 | 1012.4 |
| 20260502112426 | 14 | 233 | 3.2 | 6.4 | 0.00 | 0.00 | 0.00 | 92 | 1012.4 |
| 20260502111918 | 14 | 240 | 3.2 | 6.4 | 0.00 | 0.00 | 0.00 | 92 | 1012.4 |
| 20260502111410 | 14 | 261 | 3.2 | 3.2 | 0.00 | 0.00 | 0.00 | 92 | 1012.4 |
| 20260502110903 | 13 | 270 | 1.6 | 3.2 | 0.00 | 0.00 | 0.00 | 92 | 1012.4 |
| 20260502110356 | 13 | 259 | 1.6 | 4.8 | 0.00 | 0.00 | 0.00 | 92 | 1012.4 |
| 20260502105849 | 13 | 282 | 0.0 | 4.8 | 0.00 | 0.00 | 0.00 | 92 | 1012.4 |
| 20260502105341 | 14 | 241 | 3.2 | 4.8 | 0.00 | 0.00 | 0.00 | 92 | 1012.4 |
| 20260502104834 | 14 | 228 | 3.2 | 6.4 | 0.00 | 0.00 | 0.00 | 92 | 1012.1 |
| 20260502104327 | 14 | 186 | 3.2 | 6.4 | 0.00 | 0.00 | 0.00 | 92 | 1012.4 |
| 20260502103820 | 14 | 277 | 1.6 | 3.2 | 0.00 | 0.00 | 0.00 | 92 | 1012.1 |
| 20260502102804 | 14 | 261 | 0.0 | 4.8 | 0.00 | 0.00 | 0.00 | 92 | 1012.4 |
| 20260502102258 | 14 | 248 | 0.0 | 4.8 | 0.00 | 0.00 | 0.00 | 92 | 1012.4 |
| 20260502101243 | 13 | 225 | 4.8 | 6.4 | 0.00 | 0.00 | 0.00 | 92 | 1012.1 |
| 20260502100736 | 13 | 273 | 1.6 | 6.4 | 0.00 | 0.00 | 0.00 | 92 | 1012.1 |
| 20260502100229 | 13 | 275 | 1.6 | 6.4 | 0.00 | 0.00 | 0.00 | 92 | 1012.1 |
| 20260502091116 | 14 | 276 | 3.2 | 4.8 | 0.00 | 0.00 | 0.00 | 90 | 1012.4 |
| 20260502090609 | 14 | 279 | 3.2 | 3.2 | 0.00 | 0.00 | 0.00 | 90 | 1012.4 |
| 20260502071330 | 14 | 235 | 1.6 | 4.8 | 0.00 | 0.00 | 0.00 | 88 | 1013.1 |
| 20260502070822 | 14 | 239 | 1.6 | 4.8 | 0.00 | 0.00 | 0.00 | 88 | 1013.1 |
| 20260502070315 | 15 | 225 | 3.2 | 4.8 | 0.00 | 0.00 | 0.00 | 88 | 1013.4 |
| 20260502064753 | 15 | 244 | 1.6 | 4.8 | 0.00 | 0.00 | 0.00 | 87 | 1013.4 |
| 20260502064247 | 15 | 198 | 4.8 | 4.8 | 0.00 | 0.00 | 0.00 | 87 | 1013.4 |
| 20260502063738 | 15 | 186 | 4.8 | 6.4 | 0.00 | 0.00 | 0.00 | 87 | 1013.4 |
| 20260502063231 | 15 | 155 | 4.8 | 6.4 | 0.00 | 0.00 | 0.00 | 87 | 1013.1 |
| 20260502062724 | 15 | 284 | 1.6 | 3.2 | 0.00 | 0.00 | 0.00 | 87 | 1013.1 |
| 20260502061202 | 15 | 96 | 1.6 | 6.4 | 0.00 | 0.00 | 0.00 | 87 | 1012.8 |
| 20260502060655 | 15 | 14 | 1.6 | 9.7 | 0.00 | 0.00 | 0.00 | 87 | 1012.8 |
| 20260502055641 | 15 | 339 | 0.0 | 6.4 | 0.00 | 0.00 | 0.00 | 87 | 1013.1 |
| 20260502055134 | 15 | 83 | 3.2 | 4.8 | 0.00 | 0.00 | 0.00 | 87 | 1013.1 |
| 20260502054626 | 15 | 160 | 1.6 | 4.8 | 0.00 | 0.00 | 0.00 | 87 | 1012.8 |
| 20260502054118 | 15 | 57 | 1.6 | 4.8 | 0.00 | 0.00 | 0.00 | 87 | 1012.8 |
| 20260502053104 | 15 | 142 | 3.2 | 4.8 | 0.00 | 0.00 | 0.00 | 88 | 1013.1 |
| 20260502052557 | 15 | 234 | 1.6 | 6.4 | 0.00 | 0.00 | 0.00 | 88 | 1013.1 |
| 20260502052050 | 15 | 199 | 1.6 | 9.7 | 0.00 | 0.00 | 0.00 | 88 | 1013.1 |
| 20260502051035 | 15 | 108 | 1.6 | 4.8 | 0.00 | 0.00 | 0.00 | 88 | 1012.8 |
| 20260502050528 | 15 | 287 | 0.0 | 4.8 | 0.00 | 0.00 | 0.00 | 88 | 1013.1 |
| 20260502050020 | 15 | 264 | 0.0 | 4.8 | 0.00 | 0.00 | 0.00 | 88 | 1012.8 |
| 20260502045513 | 15 | 200 | 3.2 | 4.8 | 0.00 | 0.00 | 0.00 | 88 | 1012.8 |
| 20260502045006 | 15 | 344 | 0.0 | 3.2 | 0.00 | 0.00 | 0.00 | 88 | 1012.8 |
| 20260502044500 | 15 | 188 | 0.0 | 3.2 | 0.00 | 0.00 | 0.00 | 88 | 1012.8 |
| 20260502043951 | 15 | 283 | 0.0 | 3.2 | 0.00 | 0.00 | 0.00 | 88 | 1012.8 |
| 20260502043444 | 15 | 345 | 1.6 | 3.2 | 0.00 | 0.00 | 0.00 | 88 | 1012.4 |
| 20260502042937 | 15 | 184 | 1.6 | 4.8 | 0.00 | 0.00 | 0.00 | 89 | 1012.4 |
| 20260502042430 | 15 | 231 | 1.6 | 4.8 | 0.00 | 0.00 | 0.00 | 89 | 1012.4 |
| 20260502041923 | 15 | 261 | 0.0 | 4.8 | 0.00 | 0.00 | 0.00 | 89 | 1012.4 |
| 20260502041415 | 15 | 207 | 3.2 | 4.8 | 0.00 | 0.00 | 0.00 | 89 | 1012.4 |
| 20260502040908 | 15 | 221 | 3.2 | 4.8 | 0.00 | 0.00 | 0.00 | 89 | 1012.4 |
| 20260502040401 | 15 | 187 | 3.2 | 6.4 | 0.00 | 0.00 | 0.00 | 89 | 1012.1 |
| 20260502035854 | 15 | 199 | 3.2 | 6.4 | 0.00 | 0.00 | 0.00 | 89 | 1012.1 |
| 20260502035346 | 15 | 253 | 3.2 | 4.8 | 0.00 | 0.00 | 0.00 | 89 | 1012.1 |
| 20260502034839 | 15 | 210 | 3.2 | 4.8 | 0.00 | 0.00 | 0.00 | 89 | 1012.1 |
| 20260502034332 | 15 | 187 | 3.2 | 4.8 | 0.00 | 0.00 | 0.00 | 89 | 1011.8 |
| 20260502033825 | 15 | 185 | 3.2 | 4.8 | 0.00 | 0.00 | 0.00 | 89 | 1011.8 |
| 20260502033317 | 15 | 237 | 1.6 | 4.8 | 0.00 | 0.00 | 0.00 | 89 | 1011.8 |
| 20260502032809 | 15 | 212 | 3.2 | 9.7 | 0.00 | 0.00 | 0.00 | 89 | 1011.4 |
| 20260502032305 | 15 | 258 | 3.2 | 9.7 | 0.00 | 0.00 | 0.00 | 88 | 1011.4 |
| 20260502031755 | 15 | 244 | 4.8 | 11.3 | 0.00 | 0.00 | 0.00 | 88 | 1011.4 |
| 20260502031248 | 15 | 231 | 4.8 | 12.9 | 0.00 | 0.00 | 0.00 | 88 | 1011.4 |
| 20260502030740 | 15 | 239 | 6.4 | 12.9 | 0.00 | 0.00 | 0.00 | 87 | 1011.4 |
| 20260502030233 | 15 | 209 | 3.2 | 9.7 | 0.00 | 0.00 | 0.00 | 87 | 1011.4 |
| 20260502025726 | 15 | 209 | 3.2 | 12.9 | 0.00 | 0.00 | 0.00 | 87 | 1011.4 |
| 20260502025219 | 15 | 278 | 6.4 | 14.5 | 0.00 | 0.00 | 0.00 | 86 | 1011.1 |
| 20260502024204 | 15 | 246 | 9.7 | 17.7 | 0.00 | 0.00 | 0.00 | 85 | 1011.4 |
| 20260502023657 | 15 | 253 | 6.4 | 14.5 | 0.00 | 0.00 | 0.00 | 85 | 1011.4 |
| 20260502023150 | 16 | 253 | 11.3 | 16.1 | 0.00 | 0.00 | 0.00 | 84 | 1011.4 |
| 20260502022643 | 16 | 245 | 11.3 | 16.1 | 0.00 | 0.00 | 0.00 | 84 | 1011.4 |
| 20260502022135 | 16 | 275 | 12.9 | 14.5 | 0.00 | 0.00 | 0.00 | 83 | 1011.4 |
| 20260502021628 | 16 | 233 | 6.4 | 12.9 | 0.00 | 0.00 | 0.00 | 83 | 1011.1 |
| 20260502021121 | 16 | 252 | 6.4 | 16.1 | 0.00 | 0.00 | 0.00 | 83 | 1011.1 |
| 20260502020106 | 16 | 268 | 4.8 | 16.1 | 0.00 | 0.00 | 0.00 | 83 | 1011.1 |
| 20260502015558 | 16 | 224 | 11.3 | 17.7 | 0.00 | 0.00 | 0.00 | 82 | 1011.1 |
| 20260502015051 | 16 | 264 | 8.0 | 22.5 | 0.00 | 0.00 | 0.00 | 83 | 1011.1 |
| 20260502014544 | 16 | 271 | 4.8 | 22.5 | 0.00 | 0.00 | 0.00 | 82 | 1011.1 |
| 20260502014037 | 16 | 216 | 8.0 | 22.5 | 0.00 | 0.00 | 0.00 | 81 | 1011.1 |
| 20260502013529 | 16 | 251 | 9.7 | 22.5 | 0.00 | 0.00 | 0.00 | 81 | 1010.7 |
| 20260502013022 | 17 | 211 | 12.9 | 20.9 | 0.00 | 0.00 | 0.00 | 80 | 1011.1 |
| 20260502012515 | 17 | 241 | 6.4 | 20.9 | 0.00 | 0.00 | 0.00 | 79 | 1011.1 |
| 20260502012008 | 17 | 210 | 17.7 | 20.9 | 0.00 | 0.00 | 0.00 | 79 | 1011.1 |
| 20260502011501 | 17 | 207 | 9.7 | 17.7 | 0.00 | 0.00 | 0.00 | 79 | 1011.1 |
| 20260502010953 | 17 | 241 | 4.8 | 22.5 | 0.00 | 0.00 | 0.00 | 79 | 1011.1 |
| 20260502010446 | 17 | 228 | 11.3 | 22.5 | 0.00 | 0.00 | 0.00 | 78 | 1011.1 |
| 20260502005938 | 17 | 239 | 17.7 | 22.5 | 0.00 | 0.00 | 0.00 | 76 | 1011.1 |
| 20260502004417 | 17 | 230 | 19.3 | 27.4 | 0.00 | 0.00 | 0.00 | 76 | 1011.1 |